Weather History for EGNT - April, 2014

Change the Weather History Date:

Saturday, April 19, 2014

  Actual Average Record
Temperature  
Mean Temperature 38 °F -  
Max Temperature 51 °F 54 °F 64 °F (2011)
Min Temperature 26 °F 40 °F 26 °F (2014)
Degree Days  
Heating Degree Days 26    
Moisture  
Dew Point 36 °F    
Average Humidity 83    
Maximum Humidity 100    
Minimum Humidity 62    
Precipitation  
Precipitation 0.00 in - - ()
Sea Level Pressure  
Sea Level Pressure 30.16 in    
Wind  
Wind Speed 4 mph ()    
Max Wind Speed 12 mph    
Max Gust Speed -    
Visibility 6.2 miles    
Events      
Averages and records for this station are not official NWS values.
T = Trace of Precipitation, MM = Missing Value Source: Averaged Metar Reports

Daily Weather History Graph

Daily Weather History Graph

Search for Another Location

Airport or City:

Trip Planner

Search our weather history database for the weather conditions in past years. The results will help you decide how hot, cold, wet, or windy it might be!

Date:

Astronomy

Apr. 19, 2014 Rise Set
Actual Time 5:54 AM BST 8:18 PM BST
Civil Twilight 5:14 AM BST 8:58 PM BST
Nautical Twilight 4:23 AM BST 9:50 PM BST
Astronomical Twilight 3:21 AM BST 10:53 PM BST
Moon 12:11 AM BST (4/19) 8:34 AM BST (4/19)
Length of Visible Light 15h 44m
Length of Day
14h 24m
Waning Gibbous, 81% of the Moon is Illuminated
Apr 19
Waning Gibbous
Apr 22
Last Quarter
Apr 29
New
May 7
First Quarter
May 14
Full

Hourly Weather History & Observations

Time (BST) Temp. Windchill Dew Point Humidity Pressure Visibility Wind Dir Wind Speed Gust Speed Precip Events Conditions
12:20 AM 35.6 °F 32.8 °F 33.8 °F 93% 30.18 in - East 3.5 mph - N/A   Clear
12:50 AM 32.0 °F - 32.0 °F 100% 30.18 in - Variable 2.3 mph - N/A   Clear
1:20 AM 32.0 °F - 32.0 °F 100% 30.18 in - Calm Calm - N/A   Clear
1:50 AM 32.0 °F - 30.2 °F 93% 30.18 in - Calm Calm - N/A   Clear
2:50 AM 30.2 °F - 28.4 °F 93% 30.15 in - Calm Calm - N/A   Clear
3:20 AM 28.4 °F - 28.4 °F 100% 30.15 in - WNW 2.3 mph - N/A   Clear
3:50 AM 28.4 °F - 28.4 °F 100% 30.15 in - NW 2.3 mph - N/A   Clear
4:20 AM 28.4 °F - 28.4 °F 100% 30.15 in - Calm Calm - N/A   Clear
4:50 AM 28.4 °F - 28.4 °F 100% 30.15 in - Calm Calm - N/A   Clear
5:20 AM 28.4 °F - 28.4 °F 100% 30.15 in - Calm Calm - N/A   Clear
5:50 AM 28.4 °F 24.6 °F 28.4 °F 100% 30.15 in - NW 3.5 mph - N/A   Clear
6:20 AM 26.6 °F - 26.6 °F 100% 30.15 in - NW 2.3 mph - N/A   Clear
6:50 AM 30.2 °F - 30.2 °F 100% 30.15 in - Calm Calm - N/A   Clear
7:20 AM 33.8 °F - 32.0 °F 93% 30.18 in - Calm Calm - N/A   Clear
7:50 AM 33.8 °F - 33.8 °F 100% 30.18 in 6.2 mi Calm Calm - N/A   Scattered Clouds
8:20 AM 41.0 °F - 37.4 °F 87% 30.18 in 6.2 mi Variable 2.3 mph - N/A   Scattered Clouds
8:50 AM 42.8 °F 41.1 °F 35.6 °F 76% 30.18 in 6.2 mi Variable 3.5 mph - N/A   Partly Cloudy
9:20 AM 42.8 °F 39.3 °F 35.6 °F 76% 30.18 in 6.2 mi SE 5.8 mph - N/A   Scattered Clouds
9:50 AM 44.6 °F 40.2 °F 35.6 °F 71% 30.18 in 6.2 mi ESE 8.1 mph - N/A   Scattered Clouds
10:20 AM 46.4 °F 42.9 °F 35.6 °F 66% 30.18 in 6.2 mi ESE 6.9 mph - N/A   Scattered Clouds
10:50 AM 46.4 °F 43.5 °F 35.6 °F 66% 30.18 in 6.2 mi SE 5.8 mph - N/A   Scattered Clouds
11:20 AM 48.2 °F - 35.6 °F 62% 30.18 in 6.2 mi ESE 9.2 mph - N/A   Scattered Clouds
11:50 AM 48.2 °F - 37.4 °F 66% 30.18 in 6.2 mi ESE 10.4 mph - N/A   Scattered Clouds
12:20 PM 50.0 °F - 37.4 °F 62% 30.18 in 6.2 mi ESE 9.2 mph - N/A   Partly Cloudy
12:50 PM 50.0 °F - 37.4 °F 62% 30.18 in 6.2 mi SE 8.1 mph - N/A   Partly Cloudy
1:20 PM 50.0 °F - 37.4 °F 62% 30.18 in 6.2 mi East 9.2 mph - N/A   Partly Cloudy
2:20 PM 51.8 °F - 41.0 °F 67% 30.15 in 6.2 mi ESE 10.4 mph - N/A   Partly Cloudy
2:50 PM 51.8 °F - 39.2 °F 62% 30.15 in 6.2 mi ESE 10.4 mph - N/A   Partly Cloudy
3:20 PM 51.8 °F - 39.2 °F 62% 30.15 in 6.2 mi ESE 10.4 mph - N/A   Partly Cloudy
3:50 PM 50.0 °F - 39.2 °F 66% 30.15 in 6.2 mi ESE 11.5 mph - N/A   Partly Cloudy
4:20 PM 51.8 °F - 39.2 °F 62% 30.15 in 6.2 mi ESE 10.4 mph - N/A   Scattered Clouds
4:50 PM 50.0 °F - 41.0 °F 71% 30.15 in 6.2 mi ESE 9.2 mph - N/A   Partly Cloudy
5:20 PM 50.0 °F - 39.2 °F 66% 30.12 in 6.2 mi ESE 10.4 mph - N/A   Partly Cloudy
5:50 PM 50.0 °F - 41.0 °F 71% 30.12 in 6.2 mi ESE 9.2 mph - N/A   Partly Cloudy
6:50 PM 48.2 °F - 41.0 °F 76% 30.12 in 6.2 mi ESE 9.2 mph - N/A   Partly Cloudy
8:20 PM 44.6 °F 39.7 °F 39.2 °F 81% 30.12 in 6.2 mi ESE 9.2 mph - N/A   Partly Cloudy
8:50 PM 44.6 °F 40.7 °F 41.0 °F 87% 30.15 in 6.2 mi ESE 6.9 mph - N/A   Partly Cloudy
9:20 PM 42.8 °F 40.1 °F 41.0 °F 93% 30.15 in 6.2 mi ESE 4.6 mph - N/A   Partly Cloudy
9:50 PM 42.8 °F 39.3 °F 41.0 °F 93% 30.15 in 6.2 mi ESE 5.8 mph - N/A   Scattered Clouds
10:20 PM 42.8 °F 38.6 °F 42.8 °F 100% 30.15 in 6.2 mi East 6.9 mph - N/A   Scattered Clouds
10:50 PM 44.6 °F 43.1 °F 42.8 °F 93% 30.15 in 6.2 mi Variable 3.5 mph - N/A   Scattered Clouds
11:20 PM 42.8 °F 40.1 °F 42.8 °F 100% 30.15 in 6.2 mi ESE 4.6 mph - N/A   Scattered Clouds
11:50 PM 44.6 °F 41.4 °F 42.8 °F 93% 30.12 in 6.2 mi East 5.8 mph - N/A   Scattered Clouds